TimeCDT,TemperatureF,Dew PointF,Humidity,Sea Level PressureIn,VisibilityMPH,Wind Direction,Wind SpeedMPH,Gust SpeedMPH,PrecipitationIn,Events,Conditions,WindDirDegrees,DateUTC
12:57 AM,61.0,54.0,78,30.05,10.0,SSE,9.2,-,N/A,,Clear,150,2012-10-04 05:57:00
1:57 AM,61.0,53.1,75,30.06,10.0,SE,5.8,-,N/A,,Clear,140,2012-10-04 06:57:00
2:57 AM,60.1,53.1,78,30.07,10.0,SE,6.9,-,N/A,,Clear,140,2012-10-04 07:57:00
3:57 AM,59.0,53.1,81,30.08,10.0,SE,5.8,-,N/A,,Clear,140,2012-10-04 08:57:00
4:57 AM,59.0,53.1,81,30.10,10.0,SE,5.8,-,N/A,,Clear,140,2012-10-04 09:57:00
5:57 AM,57.9,54.0,87,30.13,10.0,ESE,4.6,-,N/A,,Clear,120,2012-10-04 10:57:00
6:57 AM,57.9,54.0,87,30.15,10.0,SE,6.9,-,N/A,,Clear,130,2012-10-04 11:57:00
7:57 AM,59.0,55.0,87,30.17,10.0,SE,4.6,-,N/A,,Clear,130,2012-10-04 12:57:00
8:57 AM,63.0,55.9,78,30.18,10.0,SSE,9.2,-,N/A,,Clear,150,2012-10-04 13:57:00
9:57 AM,70.0,57.0,63,30.17,10.0,South,11.5,-,N/A,,Clear,170,2012-10-04 14:57:00
10:57 AM,75.0,55.9,51,30.16,10.0,South,16.1,-,N/A,,Clear,190,2012-10-04 15:57:00
11:57 AM,78.1,55.9,46,30.16,10.0,SSW,13.8,-,N/A,,Clear,200,2012-10-04 16:57:00
12:57 PM,79.0,55.9,45,30.15,10.0,South,17.3,-,N/A,,Clear,180,2012-10-04 17:57:00
1:57 PM,80.1,55.9,43,30.12,10.0,South,16.1,19.6,N/A,,Clear,190,2012-10-04 18:57:00
2:57 PM,81.0,57.0,44,30.11,10.0,SW,9.2,-,N/A,,Clear,220,2012-10-04 19:57:00
3:57 PM,81.0,57.0,44,30.10,10.0,SW,12.7,-,N/A,,Clear,220,2012-10-04 20:57:00
4:57 PM,80.1,55.0,42,30.09,10.0,WSW,11.5,-,N/A,,Clear,240,2012-10-04 21:57:00
6:57 PM,75.0,55.9,51,30.10,10.0,SSW,6.9,-,N/A,,Clear,200,2012-10-04 23:57:00
8:57 PM,68.0,59.0,73,30.14,10.0,North,8.1,-,N/A,,Overcast,10,2012-10-05 01:57:00
9:57 PM,66.0,57.9,75,30.14,10.0,NNE,5.8,-,N/A,,Overcast,20,2012-10-05 02:57:00
10:57 PM,64.9,57.9,78,30.14,10.0,North,4.6,-,N/A,,Overcast,360,2012-10-05 03:57:00
11:57 PM,64.0,57.9,80,30.11,10.0,ENE,3.5,-,N/A,,Overcast,70,2012-10-05 04:57:00